Location: North Evanston
(42.0634°N, 87.6976°W)
Time: 10:42:42
(UTC+00:00)

A-11 Canister half - All Passes

Search period start: 15 May 2026 00:00
Search period end: 25 May 2026 00:00
Orbit: 1515 x 1684 km, 47.2° (Epoch: 14 May)

Date Brightness Start Highest point End Pass type
(mag) Time Alt. Az. Time Alt. Az. Time Alt. Az.
15 May - 01:40:12 10° S 01:48:12 31° SE 01:55:59 10° ENE visible
15 May - 03:42:45 10° WSW 03:52:13 83° SSE 04:01:30 10° ENE visible
15 May - 05:48:16 10° W 05:57:33 65° N 06:06:45 10° ENE visible
15 May - 07:53:53 10° WNW 08:03:11 78° NNE 08:12:32 10° ESE visible
15 May - 09:59:01 10° WNW 10:07:47 50° SW 10:16:40 10° SSE visible
15 May - 12:07:32 10° W 12:10:57 12° WSW 12:14:25 10° SW daylight
16 May - 01:17:27 10° S 01:25:14 29° SE 01:32:51 10° ENE daylight
16 May - 03:19:42 10° SW 03:29:11 80° SSE 03:38:28 10° ENE visible
16 May - 05:25:09 10° W 05:34:28 65° N 05:43:41 10° ENE visible
16 May - 07:30:50 10° WNW 07:40:08 76° NNE 07:49:27 10° ESE visible
16 May - 09:35:57 10° WNW 09:44:48 53° SW 09:53:45 10° SSE visible
16 May - 11:43:50 10° W 11:48:02 14° WSW 11:52:16 10° SSW daylight
17 May - 00:54:42 10° S 01:02:17 27° SE 01:09:41 10° ENE daylight
17 May - 02:56:40 10° SW 03:06:09 76° SSE 03:15:25 10° ENE visible
17 May - 05:02:03 10° W 05:11:23 66° N 05:20:36 10° ENE visible
17 May - 07:07:46 10° WNW 07:17:04 74° NNE 07:26:21 10° ESE visible
17 May - 09:12:53 10° WNW 09:21:48 56° SW 09:30:50 10° SE visible
17 May - 11:20:18 10° W 11:25:07 15° SW 11:29:59 10° SSW daylight
18 May - 00:31:59 10° S 00:39:20 25° SE 00:46:30 10° E daylight
18 May - 02:33:39 10° SW 02:43:08 73° SSE 02:52:23 10° ENE visible
18 May - 04:38:55 10° W 04:48:18 67° N 04:57:31 10° ENE visible
18 May - 06:44:42 10° WNW 06:54:01 73° NNE 07:03:17 10° E visible
18 May - 08:49:50 10° WNW 08:58:49 59° SW 09:07:53 10° SE visible
18 May - 10:56:52 10° W 11:02:11 17° SW 11:07:35 10° SSW daylight
19 May - 00:09:18 10° S 00:16:23 24° SE 00:23:18 10° E daylight
19 May - 02:10:38 10° SW 02:20:07 70° SSE 02:29:21 10° ENE visible
19 May - 04:15:49 10° W 04:25:14 68° N 04:34:27 10° ENE visible
19 May - 06:21:37 10° WNW 06:30:57 71° NNE 06:40:11 10° E visible
19 May - 08:26:46 10° WNW 08:35:49 62° SW 08:44:55 10° SE visible
19 May - 10:33:30 10° W 10:39:16 18° SW 10:45:06 10° SSW daylight
19 May - 23:46:39 10° S 23:53:26 22° SE 00:00:04 10° E daylight
20 May - 01:47:37 10° SW 01:57:06 67° SE 02:06:18 10° ENE visible
20 May - 03:52:42 10° W 04:02:09 69° NNW 04:11:23 10° ENE visible
20 May - 05:58:33 10° WNW 06:07:52 70° NNE 06:17:06 10° E visible
20 May - 08:03:43 10° WNW 08:12:49 65° SW 08:21:58 10° SE visible
20 May - 10:10:11 10° W 10:16:20 20° SW 10:22:34 10° S daylight
20 May - 23:24:02 10° S 23:30:30 20° SE 23:36:48 10° E daylight
21 May - 01:24:37 10° SW 01:34:05 64° SE 01:43:16 10° ENE visible
21 May - 03:29:35 10° W 03:39:04 71° NNW 03:48:20 10° ENE visible
21 May - 05:35:27 10° WNW 05:44:48 69° NNE 05:54:01 10° E visible
21 May - 07:40:40 10° WNW 07:49:49 68° SW 07:58:59 10° SE visible
21 May - 09:46:55 10° W 09:53:24 22° SW 09:59:58 10° S visible
21 May - 23:01:30 10° SSE 23:07:33 19° SE 23:13:29 10° E daylight
22 May - 01:01:38 10° SW 01:11:04 61° SE 01:20:13 10° ENE daylight
22 May - 03:06:27 10° W 03:16:00 72° NNW 03:25:17 10° ENE visible
22 May - 05:12:22 10° WNW 05:21:43 68° N 05:30:56 10° E visible
22 May - 07:17:36 10° WNW 07:26:49 71° SSW 07:36:01 10° SE visible
22 May - 09:23:40 10° W 09:30:29 24° SW 09:37:21 10° S visible
22 May - 22:38:59 10° SSE 22:44:37 17° SE 22:50:07 10° E daylight
23 May - 00:38:40 10° SW 00:48:04 58° SE 00:57:10 10° ENE daylight
23 May - 02:43:21 10° WSW 02:52:55 74° NNW 03:02:14 10° ENE visible
23 May - 04:49:16 10° WNW 04:58:38 67° N 05:07:50 10° E visible
23 May - 06:54:33 10° WNW 07:03:48 74° SSW 07:13:01 10° SE visible
23 May - 09:00:28 10° WNW 09:07:33 25° SW 09:14:41 10° S visible
23 May - 22:16:34 10° SSE 22:21:40 16° SE 22:26:41 10° E daylight
24 May - 00:15:42 10° SW 00:25:03 55° SE 00:34:07 10° ENE daylight
24 May - 02:20:14 10° WSW 02:29:50 75° NNW 02:39:10 10° ENE visible
24 May - 04:26:11 10° WNW 04:35:33 66° N 04:44:45 10° E visible
24 May - 06:31:29 10° WNW 06:40:48 78° SSW 06:50:01 10° SE visible
24 May - 08:37:16 10° WNW 08:44:36 27° SW 08:51:59 10° S visible
24 May - 21:54:15 10° SSE 21:58:44 14° ESE 22:03:09 10° E daylight
